Russell, KS

10:59 PM CST on February 24, 2017 (GMT -0600)
Russell Municipal

Weather History for KRSL - May, 2012

Change the Weather History Date:

Sunday, May 6, 2012

  Actual Average Record
Temperature  
Mean Temperature 66 °F -  
Max Temperature 75 °F 72 °F 98 °F (2004)
Min Temperature 57 °F 49 °F 30 °F (1989)
Cooling Degree Days 1    
Growing Degree Days 16 (Base 50)    
Moisture  
Dew Point 59 °F    
Average Humidity 73    
Maximum Humidity 94    
Minimum Humidity 56    
Precipitation  
Precipitation 0.00 in - - ()
Sea Level Pressure  
Sea Level Pressure 29.85 in    
Wind  
Wind Speed 19 mph (North)    
Max Wind Speed 29 mph    
Max Gust Speed 39 mph    
Visibility 9 miles    
Events Rain    
Averages and records for this station are not official NWS values.
T = Trace of Precipitation, MM = Missing Value Source: NWS Daily Summary

Daily Weather History Graph

Daily Weather History Graph

Search for Another Location

Airport or City:

Trip Planner

Search our weather history database for the weather conditions in past years. The results will help you decide how hot, cold, wet, or windy it might be!

Date:

Astronomy

May. 06, 2012 Rise Set
Actual Time 6:31 AM CDT 8:33 PM CDT
Civil Twilight 6:01 AM CDT 9:02 PM CDT
Nautical Twilight 5:26 AM CDT 9:38 PM CDT
Astronomical Twilight 4:47 AM CDT 10:16 PM CDT
Moon 9:39 PM CDT (5/6) 6:43 AM CDT (5/6)
Length of Visible Light 15h 00m
Length of Day
14h 01m
Full, 100% of the Moon is Illuminated
May 6
Full
May 12
Last Quarter
May 20
New
May 28
First Quarter
Jun 4
Full

Hourly Weather History & Observations

Time (CDT) Temp. Dew Point Humidity Pressure Visibility Wind Dir Wind Speed Gust Speed Precip Events Conditions
12:53 AM 75.0 °F 69.1 °F 82% 29.63 in 8.0 mi North - - N/A   Clear
1:53 AM 73.9 °F 70.0 °F 87% 29.62 in 7.0 mi South 21.9 mph - N/A   Clear
2:53 AM 73.4 °F 69.8 °F 88% 29.68 in 6.0 mi South 15.0 mph 25.3 mph N/A   Haze
3:53 AM 72.0 °F 69.1 °F 91% 29.62 in 6.0 mi South 12.7 mph - N/A   Clear
4:38 AM 73.4 °F 69.8 °F 88% 29.75 in 5.0 mi West 15.0 mph 25.3 mph N/A   Mostly Cloudy
4:53 AM 73.9 °F 69.1 °F 85% 29.70 in 6.0 mi WNW 9.2 mph - N/A   Haze
5:26 AM 73.4 °F 69.8 °F 88% 29.74 in 6.0 mi Calm Calm - N/A   Mostly Cloudy
5:53 AM 70.0 °F 66.9 °F 90% 29.70 in 4.0 mi ENE 4.6 mph - N/A   Scattered Clouds
6:40 AM 69.8 °F 68.0 °F 94% 29.78 in 4.0 mi North 16.1 mph 21.9 mph N/A   Mostly Cloudy
6:53 AM 69.1 °F 64.9 °F 87% 29.75 in 7.0 mi North 21.9 mph 33.4 mph 0.00 in Rain Light Rain
7:10 AM 66.2 °F 62.6 °F 88% 29.83 in 10.0 mi NNE 27.6 mph 38.0 mph 0.00 in   Overcast
7:37 AM 66.2 °F 55.4 °F 68% 29.84 in 10.0 mi NNE 28.8 mph 39.1 mph 0.00 in   Overcast
7:53 AM 66.0 °F 55.0 °F 68% 29.80 in 10.0 mi NNE 23.0 mph 31.1 mph 0.00 in   Overcast
8:53 AM 66.9 °F 55.9 °F 68% 29.83 in 10.0 mi NNE 25.3 mph 31.1 mph N/A   Overcast
9:53 AM 68.0 °F 57.0 °F 68% 29.87 in 10.0 mi NNE 20.7 mph 32.2 mph N/A   Overcast
10:05 AM 68.0 °F 57.2 °F 68% 29.92 in 10.0 mi North 21.9 mph 32.2 mph N/A   Overcast
10:53 AM 70.0 °F 57.9 °F 65% 29.88 in 10.0 mi NNE 25.3 mph 32.2 mph N/A   Mostly Cloudy
11:08 AM 71.6 °F 57.2 °F 60% 29.93 in 10.0 mi NNE 20.7 mph 33.4 mph N/A   Mostly Cloudy
11:17 AM 71.6 °F 57.2 °F 60% 29.93 in 10.0 mi North 24.2 mph 32.2 mph N/A   Mostly Cloudy
11:35 AM 73.4 °F 57.2 °F 57% 29.92 in 10.0 mi NNE 25.3 mph 32.2 mph N/A   Mostly Cloudy
11:53 AM 68.0 °F 57.9 °F 70% 29.89 in 10.0 mi North 23.0 mph 34.5 mph N/A   Mostly Cloudy
12:04 PM 68.0 °F 57.2 °F 68% 29.93 in 10.0 mi North 23.0 mph 32.2 mph N/A   Mostly Cloudy
12:30 PM 68.0 °F 57.2 °F 68% 29.93 in 10.0 mi North 25.3 mph 35.7 mph N/A   Mostly Cloudy
12:49 PM 68.0 °F 57.2 °F 68% 29.94 in 10.0 mi North 21.9 mph 33.4 mph N/A   Mostly Cloudy
12:53 PM 68.0 °F 57.0 °F 68% 29.90 in 10.0 mi North 26.5 mph 33.4 mph N/A   Overcast
1:53 PM 66.0 °F 57.0 °F 73% 29.91 in 10.0 mi North 24.2 mph 32.2 mph N/A   Overcast
2:53 PM 64.9 °F 55.0 °F 70% 29.93 in 10.0 mi North 25.3 mph 35.7 mph N/A   Overcast
3:53 PM 66.0 °F 55.0 °F 68% 29.92 in 10.0 mi North 20.7 mph 26.5 mph N/A   Overcast
4:53 PM 66.0 °F 55.0 °F 68% 29.93 in 10.0 mi North 18.4 mph 24.2 mph N/A   Overcast
5:53 PM 64.0 °F 54.0 °F 70% 29.93 in 10.0 mi NNE 24.2 mph 29.9 mph N/A   Overcast
6:53 PM 64.0 °F 55.0 °F 73% 29.93 in 10.0 mi North 13.8 mph 24.2 mph N/A   Overcast
7:53 PM 64.0 °F 54.0 °F 70% 29.94 in 10.0 mi North 19.6 mph 25.3 mph N/A   Overcast
9:53 PM 61.0 °F 45.0 °F 56% 30.01 in 10.0 mi North 20.7 mph 27.6 mph N/A   Overcast
10:53 PM 57.9 °F 46.0 °F 65% 30.04 in 10.0 mi North 15.0 mph 26.5 mph 0.00 in Rain Light Rain
11:53 PM 57.0 °F 42.1 °F 57% 30.05 in 10.0 mi North 15.0 mph - 0.00 in   Overcast